Regional Weather Roundup
Issued by NWS Northern Indiana

Home | Current Version | Previous Version | Text Only | Print | Product List | Glossary Off
Versions: 1 2 3 4 5 6 7 8 9 10 11 12 13 14 15 16 17 18 19 20 21 22 23 24 25 26 27 28 29 30 31 32 33 34 35 36 37 38 39 40 41 42 43 44 45 46 47 48 49 50

000
ASUS43 KIWX 120110
RWRIWX

KIWX WEATHER ROUNDUP
NATIONAL WEATHER SERVICE NORTHERN INDIANA
900 PM EDT FRI JUL 11 2014

NOTE: "FAIR" INDICATES FEW OR NO CLOUDS BELOW 12,000 FEET WITH NO
SIGNIFICANT WEATHER AND/OR OBSTRUCTIONS TO VISIBILITY.

* THESE STATIONS ARE NOT UNDER NWS QUALITY CONTROL. THEY ALSO MAY NOT
  REPORT WEATHER SUCH AS PRECIPITATION OR FOG.

INZ001>027-120200-
NORTHERN INDIANA

CITY           SKY/WX    TMP DP  RH WIND       PRES   REMARKS
GARY*          MOCLDY    77  57  50 S5        30.13R
VALPARAISO     CLOUDY    72  61  68 CALM      30.14S
MICHIGAN CITY* CLOUDY    68  61  77 CALM      30.15R
LAPORTE*       CLOUDY    71  64  76 CALM      30.16R
KNOX*          CLOUDY    72  61  67 CALM      30.13S
SOUTH BEND     CLOUDY    74  60  61 CALM      30.15R
ELKHART*       CLOUDY    73  57  56 CALM      30.15
GOSHEN         CLOUDY    74  63  68 S3        30.14S
MONTICELLO*    PTCLDY    74  63  68 SW3       30.14R
LOGANSPORT*    MOCLDY    73  61  64 S3        30.14F
ROCHESTER*     CLOUDY    77  59  53 CALM      30.15R
WARSAW*        LGT RAIN  73  57  56 CALM      30.14S
ANGOLA*        PTCLDY    73  64  73 CALM      30.15F
FORT WAYNE     CLOUDY    76  57  51 CALM      30.16S
HUNTINGTON*    MOCLDY    73  62  70 CALM      30.15S
PERU/GRISSOM   CLOUDY    76  62  62 SE5       30.14S
MARION*        MOCLDY    71  61  70 SE5       30.16S

$$
INZ028>050-120200-
CENTRAL INDIANA

CITY           SKY/WX    TMP DP  RH WIND       PRES   REMARKS
LAFAYETTE      PTCLDY    75  61  61 SW3       30.14S
KOKOMO*        CLOUDY    73  63  68 S5        30.15S
MUNCIE*        PTCLDY    76  56  49 SW3       30.16S
INDIANAPOLIS   PTCLDY    74  59  59 SW6       30.15S

$$
MIZ043>046-050>051-056>058-064>065-071>073-077>080-120200-
SOUTHWEST LOWER MICHIGAN

CITY           SKY/WX    TMP DP  RH WIND       PRES   REMARKS
BATTLE CREEK   CLOUDY    75  60  59 S3        30.16R
BENTON HARBOR  CLOUDY    69  63  81 CALM      30.15R
COLDWATER*     CLOUDY    72  64  76 CALM      30.15S
HILLSDALE*     CLOUDY    72  60  65 CALM      30.17S
HOLLAND        CLOUDY    72  63  73 CALM      30.16R
GRAND RAPIDS   MOCLDY    75  60  59 W6        30.15R
KALAMAZOO      CLOUDY    75  59  57 S5        30.15R
STURGIS*       LGT RAIN  70  66  88 CALM      30.15R
THREE RIVERS*  FAIR      72  65  79 CALM      30.15S

$$
OHZ001>008-015>018-024>025-120200-
NORTHWEST OHIO

CITY           SKY/WX    TMP DP  RH WIND       PRES   REMARKS
WAUSEON*       FAIR      73  63  68 S3        30.16S
DEFIANCE       CLOUDY    75  60  59 CALM      30.15S
FINDLAY        MOCLDY    77  61  57 CALM      30.15S
TOLEDO EXPRESS MOCLDY    73  60  63 E3        30.15S
TOLEDO METCALF MOCLDY    73  58  59 E7        30.17R
LIMA           MOCLDY    76  63  64 CALM      30.17R

$$
&&



USA.gov is the U.S. government's official web portal to all federal, state and local government web resources and services.